Regional Weather Roundup
Issued by NWS Wakefield, VA

Home | Current Version | Previous Version | Graphics & Text | Print | Product List | Glossary On
Versions: 1 2 3 4 5 6 7 8 9 10 11 12 13 14 15 16 17 18 19 20 21 22 23 24 25 26 27
000
ASUS41 KAKQ 190715
RWRAKQ

REGIONAL WEATHER ROUNDUP
NATIONAL WEATHER SERVICE WAKEFIELD VA
300 AM EDT SAT AUG 19 2017

Note: "fair" indicates few or no clouds below 12,000 feet with no
significant weather and/or obstructions to visibility. * = Denotes
station may not report precipitation (e.g., rain,snow,etc.),
thunder or fog.

VAZ042-051-052>054-056-190800-
NORTHERN VIRGINIA

CITY           SKY/WX    TMP DP  RH WIND       PRES   REMARKS
WASH NATIONAL  CLOUDY    79  77  94 W7        29.86S
DULLES         CLOUDY    76  75  97 SW5       29.88R
FORT BELVOIR   CLOUDY    77  74  88 W6        29.86F
QUANTICO       CLOUDY    78  75  90 N9        29.86F
FREDERICKSBRG* MOCLDY    77  77 100 SW5       29.87R
STAFFORD*      CLOUDY    75  75 100 W3        29.91S
WARRENTON      CLOUDY    76  72  86 N3        29.87F
CULPEPER*      CLOUDY    75  75  98 CALM      29.89S
MANASSAS*      LGT RAIN  74  73  97 CALM      29.88S
LEESBURG*      CLOUDY    77  73  88 W5        29.89R
WINCHESTER     CLOUDY    72  63  73 W5        29.90S
FRONT ROYAL*   CLOUDY    73  64  73 S5        29.90S
LURAY*         CLOUDY    72  72 100 CALM      29.93R
$$

VAZ048-049-060>072-079>083-190800-
CENTRAL AND SOUTH CENTRAL VIRGINIA

CITY           SKY/WX    TMP DP  RH WIND       PRES   REMARKS
RICHMOND       CLOUDY    75  75 100 S5        29.87S
CHESTERFIELD*  PTSUNNY   74  74 100 S3        29.87F
PETERSBURG*    LGT RAIN  73  73 100 CALM      29.89F
HANOVER        CLOUDY    75  73  93 S6        29.88R
TAPPAHANNOCK*  CLOUDY   N/A N/A N/A CALM      29.87F
QUINTON*       CLOUDY   N/A N/A N/A SW6       29.87S
CHARLOTTSVILLE CLOUDY    77  74  90 CALM      29.90R
GORDONSVILLE*  CLOUDY    76  76 100 E3        29.88S
ORANGE*        LGT RAIN  73  73 100 CALM      29.89R
LOUISA*        CLOUDY    75  73  94 CALM      29.89R FOG
BUMPASS*       PTSUNNY   74  74 100 CALM      29.88R
FARMVILLE*     CLOUDY    76  74  93 W3        29.88S
CREWE*         PTSUNNY   75  71  86 CALM      29.89S
FORT PICKETT*  PTSUNNY  N/A N/A N/A SW6       29.89F
CHASE CITY*    PTSUNNY   74  74  99 CALM      29.91R
CLARKSVILLE*   CLOUDY    73  73 100 SW5       29.91S
SOUTH HILL*    CLOUDY    75  75 100 S5        29.96S
LAWRENCEVILLE* CLOUDY    74  73  97 CALM      29.90R
EMPORIA*       CLOUDY    73  73 100 S3        29.90R
$$

VAZ088>098-190800-
SOUTHEAST VIRGINIA

CITY           SKY/WX    TMP DP  RH WIND       PRES   REMARKS
NORFOLK        CLOUDY    75  74  96 S5        29.86F
VIRGINIA BEACH CLOUDY    74  72  93 S3        29.86F
NORFOLK NAVAL  CLOUDY    76  73  91 S5        29.87F
WEST POINT*    CLOUDY    75  74  95 SW3       29.88R
SALUDA*        FAIR      74  74 100 SW3       29.85F
NEWPORT NEWS   CLOUDY    75  73  93 SW5       29.85F
LANGLEY AFB    CLOUDY    75  75  99 SW6       29.85S
FORT EUSTIS    CLOUDY    75  73  94 SW3       29.83S
WILLIAMSBURG*  CLOUDY    75  75 100 CALM      29.86F
HR EXEC AP*    FAIR      73  70  88 S5        29.86S
FRANKLIN*      DRIZZLE   74  73  97 S3        29.88F
US460-WAKEFLD  MOCLDY    74  74 100 S3        29.87F
$$

VAZ020-022-025-037-045-190800-
WEST CENTRAL AND SOUTHWEST VIRGINIA

CITY           SKY/WX    TMP DP  RH WIND       PRES   REMARKS
STAUNTON*      CLOUDY    73  68  85 CALM      29.96S
WAYNESBORO*    CLOUDY    73  69  88 CALM      29.96S
HOT SPRINGS VA CLEAR     64  61  88 W10       30.08F
LYNCHBURG      CLEAR     72  66  81 CALM      29.93F
DANVILLE       CLOUDY    75  71  87 W6        29.93S
SOUTH BOSTON*  PTSUNNY   73  72  96 CALM      29.92R
MARTINSVILLE   CLOUDY    71  71  98 CALM      29.99S FOG
ROANOKE        CLEAR     71  66  84 W5        29.98F
BLACKSBURG     CLEAR     65  65  99 CALM      30.06F
DUBLIN*        CLEAR     68  65  90 W6        30.04F
MARION*        CLEAR     64  56  74 CALM      30.09S
HILLSVILLE*    CLEAR     66  61  84 CALM      30.05F
RICHLANDS*     FAIR      66  60  81 SW3       30.08S
WISE*          CLEAR     64  64 100 CALM      30.09S
ABINGDON*      CLEAR     66  66  99 CALM      30.06R
$$

MDZ021>025-VAZ099-100-190800-
SOUTHERN MARYLAND AND THE DELMARVA PENINSULA

CITY           SKY/WX    TMP DP  RH WIND       PRES   REMARKS
PATUXENT RIVER CLOUDY    75  75 100 W5        29.85R
BAY BRIDGE APT CLOUDY    77  75  94 W6        29.85R
LEONARDTOWN    CLOUDY    73  72  94 S5        29.87S
DOVER          CLOUDY    73  73 100 SW9       29.83S
GEORGETOWN     CLOUDY    74  72  93 S5        29.86S
EASTON         CLOUDY   N/A N/A N/A CALM      29.88S
CAMBRIDGE      CLOUDY    75  73  94 CALM      29.85S
SALISBURY      CLOUDY    73  73 100 CALM      29.86S
OCEAN CITY     CLOUDY    75  74  96 SW3       29.86F
WALLOPS ISLAND CLOUDY    74  74 100 W3        29.85F
ACCOMACK*      LGT RAIN  75  74  96 SW8       29.86F
$$

NCZ012>017-030>032-190800-
NORTH CENTRAL AND EASTERN NORTH CAROLINA

CITY           SKY/WX    TMP DP  RH WIND       PRES   REMARKS
ROANOKE RAPIDS PTSUNNY   75  75 100 SW3       29.90R
RALEIGH        MOCLDY    75  73  93 W3        29.93F
ELIZABETH CITY CLOUDY    82  80  94 SW8       29.89R
AHOSKIE*         N/A     75  75  98 CALM      29.89F
EDENTON*       MOCLDY    82  78  86 SW6       29.90S
CURRITUCK*     CLOUDY    77  74  88 CALM      29.90S
KILL DEVIL HLS MOCLDY    81  78  91 SW5       29.89S
MANTEO         MOCLDY    81  79  93 SW10      29.90S
CAPE HATTERAS  CLEAR     83  81  94 SW12      29.92F HX  97
TARBORO*       NOT AVBL
GOLDSBORO      CLEAR     80  80 100 SW3       29.90S
WASHINGTON     CLEAR     79  76  92 SW6       29.91R
GREENVILLE     CLEAR     81  79  94 SW7       29.92F
NEW BERN       CLEAR     80  79  96 SW7       29.92S
WILMINGTON     CLEAR     82  78  88 SW9       29.93S
$$

VAZ048-190800-
ELSEWHERE

CITY           SKY/WX    TMP DP  RH WIND       PRES   REMARKS
HARRISBURG PA  MOCLDY    73  72  96 NW5       29.83S
BALTIMORE      CLOUDY    76  76 100 W6        29.84S
ANNAPOLIS      CLOUDY    78  78 100 VRB3      29.83S
ANDREWS AFB    CLOUDY    76  74  94 W8        29.86R
PHILADELPHIA   CLOUDY    76  73  91 SW10      29.83S
HENDERSON NC   MOCLDY    73  71  93 SW5       29.92F
GREENSBORO     MOCLDY    76  71  85 CALM      29.95F
ROCKY MOUNT    PTCLDY    79  76  90 CALM      29.91S
$$

VAZ100-190800-
MARINE

STATION/POSITION TIME  TEMP    WIND        PRES    WAVE   SWELL
                       AIR SEA DIR/SP/G            HT/PER HT/PER
                 (UTC) (F)     (DEG/KT/KT) (MB)    (FT/S) (FT/S)
BRANDYWINE LGT   0642          240/ 15/ 17 1011.0R
CAPE MAY NJ      0648      78  240/ 10/ 12 1010.2R
LEWES DE         0648      76  220/  3/  5 1010.5R
15NM E FENWICK I 0650   77 78  230/ 12/ 16 1011.2R   3/ 5   2/ 6
OCEAN-CITY-INLET 0648      80  240/  4/  6 1011.3R
WACHAPREAGUE VA  0642      85  250/  3/  5 1011.2F
THOMAS POINT MD  0700   77 80  270/  9/ 10   N/A
GOOSES REEF MD   0700   78 80  250/ 12/ 16 1011.0    1/ 2
COVE POINT MD    0642          280/ 11/ 15 1010.9F
SOLOMONS ISLAND  0642      81  200/  8/  9   N/A
BISHOPS HEAD MD  0648      82  220/  9/ 10 1011.0S
PINEY POINT MD   0642          250/  3/  5   N/A
POTOMAC MD       0700   77 82  250/  8/ 10 1010.3
CAMBRIDGE MD     0648      81              1011.5S
LEWISETTA VA     0642      82  230/  7/  8 1010.9R
RAPPAHANNOCK LGT 0642          220/  9/ 11 1011.9F
STINGRAY PT      0700   78 81  210/  6/  8 1010.8    1
YORK RVR RNG VA  0642          210/  8/ 10 1010.9F
YORKTOWN VA      0642      82  230/  8/ 10 1010.6F
JAMESTOWN VA     0700      84  290/  6/  8   N/A     0
DOMINION TERM VA 0642          230/  4/  6 1011.1F
KIPTOPEKE VA     0642      81  280/  9/ 12   N/A
CHES BAY BRIDGE  0642      81  250/  7/  9 1011.2F
CAPE HENRY VA    0642          230/  3/  4   N/A
WILLOUBY STN VA  0642           CALM  /  2 1010.9F
S CRANEY ISL VA  0642          180/  4/  5 1011.2F
CAPE HENRY BUOY  0700      78                N/A     3/ 5
1ST LANDING BUOY 0700   76 80              1011.0    1/ 3
64NM E OF VA BCH 0650   79 77  280/  8/ 10 1012.5R   3/ 5   3/ 5
DUCK PIER NC     0642      72  220/ 14/ 19 1011.5F
44100 DUCK FRF   0605      80                N/A     3/ 8
44056 DUCK FRF   0700      77                N/A     2/ 8
OREGON INLET NC  0642      84  210/ 17/ 22 1012.2S
HATTERAS NC      0642      83  220/ 11/ 15 1013.2F
DIAMOND SHLS NC  0650   85 85  230/ 19/ 21 1013.1F   6/ 6   2/24
CAPE LOOKOUT NC  0700   83     220/ 11/ 14 1013.2F
$$




USA.gov is the U.S. government's official web portal to all federal, state and local government web resources and services.